When you browse on this site, cookies collect data to enhance your experience and personalize the content and advertising you see.
Visit our Privacy Policy to learn more. By continuing to use the site, you agree to this use of cookies and data.
  • în România
  • Lista ţărilor
  • Pe 7 zile
  • Temperatura apei
  • Hartă satelitară
  • Meteo pe hartă
  • Widget-uri
  • user-avatar
    Intrare

    Meteo pe oră la Prinston

    Astăzi, 23 Februarie, Sâmbătă

    Timp Temperatura Precipitaţii Vânt Presiune Umiditate
    00:00 +2°C° 0 mm 1 m/s 769 mmHg 68%
    01:00 +2°C° 0 mm 1 m/s 770 mmHg 69%
    02:00 +1°C° 0 mm 1 m/s 770 mmHg 70%
    03:00 +1°C° 0 mm 1 m/s 769 mmHg 71%
    04:00 +1°C° 0 mm 1 m/s 769 mmHg 72%
    05:00 +1°C° 0 mm 1 m/s 769 mmHg 73%
    06:00 +1°C° 0 mm 1 m/s 770 mmHg 73%
    07:00 +1°C° 0 mm 1 m/s 770 mmHg 74%
    08:00 +2°C° 0 mm 1 m/s 770 mmHg 69%
    09:00 +4°C° 0 mm 1 m/s 770 mmHg 64%
    10:00 +4°C° 0 mm 2 m/s 770 mmHg 59%
    11:00 +5°C° 0 mm 2 m/s 769 mmHg 55%
    12:00 +6°C° 0 mm 2 m/s 769 mmHg 52%
    13:00 +6°C° 0 mm 2 m/s 768 mmHg 49%
    14:00 +6°C° 0 mm 2 m/s 768 mmHg 52%
    15:00 +6°C° 0 mm 2 m/s 768 mmHg 54%
    16:00 +6°C° 0 mm 2 m/s 767 mmHg 57%
    17:00 +5°C° 0 mm 2 m/s 767 mmHg 60%
    18:00 +5°C° 0 mm 2 m/s 766 mmHg 64%
    19:00 +4°C° 0 mm 2 m/s 766 mmHg 68%
    20:00 +4°C° 0 mm 2 m/s 765 mmHg 71%
    21:00 +4°C° 0 mm 2 m/s 765 mmHg 73%
    22:00 +4°C° 0 mm 2 m/s 764 mmHg 75%
    23:00 +4°C° 0.1 mm 2 m/s 763 mmHg 79%

    Mâine, 24 Februarie, Duminică

    Timp Temperatura Precipitaţii Vânt Presiune Umiditate
    00:00 +4°C° 0.1 mm 2 m/s 762 mmHg 82%
    01:00 +4°C° 0.1 mm 2 m/s 762 mmHg 85%
    02:00 +4°C° 0.3 mm 2 m/s 760 mmHg 89%
    03:00 +5°C° 0.3 mm 2 m/s 759 mmHg 92%
    04:00 +5°C° 0.3 mm 2 m/s 758 mmHg 96%
    05:00 +6°C° 2.3 mm 2 m/s 756 mmHg 97%
    06:00 +6°C° 2.3 mm 2 m/s 755 mmHg 97%
    07:00 +7°C° 2.3 mm 2 m/s 753 mmHg 98%
    08:00 +8°C° 1.2 mm 3 m/s 752 mmHg 98%
    09:00 +9°C° 1.2 mm 3 m/s 751 mmHg 97%
    10:00 +11°C° 1.2 mm 4 m/s 749 mmHg 97%
    11:00 +11°C° 0.4 mm 4 m/s 748 mmHg 95%
    12:00 +12°C° 0.4 mm 5 m/s 746 mmHg 93%
    13:00 +13°C° 0.4 mm 5 m/s 744 mmHg 91%
    14:00 +14°C° 0.2 mm 6 m/s 743 mmHg 89%
    15:00 +14°C° 0.2 mm 6 m/s 742 mmHg 87%
    16:00 +15°C° 0.2 mm 6 m/s 741 mmHg 85%
    17:00 +12°C° 0.2 mm 7 m/s 742 mmHg 76%
    18:00 +9°C° 0.2 mm 8 m/s 743 mmHg 67%
    19:00 +6°C° 0.2 mm 8 m/s 745 mmHg 58%
    20:00 +5°C° 0 mm 8 m/s 745 mmHg 58%
    21:00 +5°C° 0 mm 8 m/s 745 mmHg 58%
    22:00 +3°C° 0 mm 9 m/s 746 mmHg 58%
    23:00 +2°C° 0 mm 9 m/s 746 mmHg 56%

    Poimâine, 25 Februarie, Luni

    Timp Temperatura Precipitaţii Vânt Presiune Umiditate
    00:00 +1°C° 0 mm 9 m/s 747 mmHg 55%
    01:00 0°C° 0 mm 9 m/s 747 mmHg 53%
    02:00 -1°C° 0 mm 9 m/s 748 mmHg 53%
    03:00 -3°C° 0 mm 9 m/s 748 mmHg 53%
    04:00 -3°C° 0 mm 9 m/s 749 mmHg 52%
    05:00 -4°C° 0 mm 9 m/s 750 mmHg 51%
    06:00 -4°C° 0 mm 9 m/s 751 mmHg 49%
    07:00 -5°C° 0 mm 9 m/s 752 mmHg 47%
    08:00 -4°C° 0 mm 10 m/s 752 mmHg 44%
    09:00 -3°C° 0 mm 10 m/s 753 mmHg 40%
    10:00 -2°C° 0 mm 11 m/s 754 mmHg 37%
    11:00 -2°C° 0 mm 11 m/s 755 mmHg 36%
    12:00 -2°C° 0 mm 11 m/s 755 mmHg 35%
    13:00 -1°C° 0 mm 11 m/s 756 mmHg 33%
    14:00 0°C° 0 mm 10 m/s 757 mmHg 33%
    15:00 0°C° 0 mm 10 m/s 757 mmHg 33%
    16:00 -2°C° 0 mm 10 m/s 758 mmHg 33%
    17:00 -3°C° 0 mm 9 m/s 759 mmHg 35%
    18:00 -4°C° 0 mm 8 m/s 760 mmHg 37%
    19:00 -4°C° 0 mm 7 m/s 761 mmHg 39%
    20:00 -4°C° 0 mm 7 m/s 762 mmHg 39%
    21:00 -6°C° 0 mm 7 m/s 763 mmHg 39%
    22:00 -6°C° 0 mm 7 m/s 763 mmHg 39%
    23:00 -6°C° 0 mm 6 m/s 764 mmHg 38%

    26 Februarie, Marţi

    Timp Temperatura Precipitaţii Vânt Presiune Umiditate
    00:00 -6°C° 0 mm 6 m/s 765 mmHg 38%
    01:00 -6°C° 0 mm 6 m/s 765 mmHg 37%
    02:00 -6°C° 0 mm 5 m/s 765 mmHg 37%
    03:00 -6°C° 0 mm 5 m/s 766 mmHg 36%
    04:00 -7°C° 0 mm 5 m/s 766 mmHg 35%
    05:00 -7°C° 0 mm 5 m/s 767 mmHg 36%
    06:00 -7°C° 0 mm 5 m/s 768 mmHg 36%
    07:00 -7°C° 0 mm 4 m/s 768 mmHg 36%
    08:00 -6°C° 0 mm 5 m/s 769 mmHg 34%
    09:00 -6°C° 0 mm 5 m/s 769 mmHg 31%
    10:00 -5°C° 0 mm 5 m/s 769 mmHg 29%
    11:00 -4°C° 0 mm 5 m/s 769 mmHg 27%
    12:00 -2°C° 0 mm 5 m/s 769 mmHg 25%
    13:00 -2°C° 0 mm 6 m/s 768 mmHg 23%
    14:00 -1°C° 0 mm 5 m/s 768 mmHg 23%
    15:00 -1°C° 0 mm 5 m/s 768 mmHg 24%
    16:00 -1°C° 0 mm 5 m/s 768 mmHg 24%
    17:00 -2°C° 0 mm 4 m/s 769 mmHg 26%
    18:00 -2°C° 0 mm 3 m/s 770 mmHg 29%
    19:00 -4°C° 0 mm 3 m/s 770 mmHg 32%
    20:00 -4°C° 0 mm 3 m/s 770 mmHg 33%
    21:00 -4°C° 0 mm 2 m/s 771 mmHg 35%
    22:00 -4°C° 0 mm 2 m/s 771 mmHg 36%
    23:00 -4°C° 0 mm 2 m/s 771 mmHg 36%

    27 Februarie, Miercuri

    Timp Temperatura Precipitaţii Vânt Presiune Umiditate
    00:00 -4°C° 0 mm 2 m/s 771 mmHg 37%
    01:00 -5°C° 0 mm 2 m/s 771 mmHg 37%
    02:00 -5°C° 0 mm 2 m/s 771 mmHg 37%
    03:00 -3°C° 0 mm 1 m/s 770 mmHg 36%
    04:00 -3°C° 0 mm 1 m/s 770 mmHg 36%
    05:00 -3°C° 0 mm 1 m/s 770 mmHg 35%
    06:00 -3°C° 0 mm 1 m/s 770 mmHg 35%
    07:00 -3°C° 0 mm 1 m/s 770 mmHg 35%
    08:00 -4°C° 0 mm 2 m/s 770 mmHg 32%
    09:00 -2°C° 0 mm 2 m/s 769 mmHg 29%
    10:00 -1°C° 0 mm 2 m/s 769 mmHg 25%
    11:00 0°C° 0 mm 3 m/s 768 mmHg 29%
    12:00 +1°C° 0 mm 3 m/s 766 mmHg 33%
    13:00 +3°C° 0 mm 4 m/s 765 mmHg 36%
    14:00 +3°C° 0 mm 4 m/s 764 mmHg 43%
    15:00 +4°C° 0 mm 4 m/s 762 mmHg 50%
    16:00 +4°C° 0 mm 4 m/s 761 mmHg 57%
    17:00 +3°C° 0 mm 4 m/s 760 mmHg 65%
    18:00 +3°C° 0 mm 3 m/s 759 mmHg 73%
    19:00 +3°C° 0 mm 2 m/s 758 mmHg 80%
    20:00 +3°C° 0 mm 3 m/s 757 mmHg 85%
    21:00 +4°C° 0 mm 3 m/s 756 mmHg 90%
    22:00 +5°C° 0 mm 3 m/s 755 mmHg 95%
    23:00 +6°C° 0 mm 4 m/s 755 mmHg 95%

    28 Februarie, Joi

    Timp Temperatura Precipitaţii Vânt Presiune Umiditate
    00:00 +6°C° 0 mm 4 m/s 754 mmHg 94%
    01:00 +6°C° 0 mm 4 m/s 754 mmHg 93%
    02:00 +6°C° 0 mm 4 m/s 754 mmHg 91%
    03:00 +5°C° 0 mm 4 m/s 755 mmHg 89%
    04:00 +4°C° 0 mm 4 m/s 756 mmHg 86%
    05:00 +3°C° 0 mm 4 m/s 756 mmHg 82%
    06:00 +1°C° 0 mm 4 m/s 757 mmHg 77%
    07:00 -1°C° 0 mm 4 m/s 758 mmHg 72%
    08:00 0°C° 0 mm 4 m/s 759 mmHg 62%
    09:00 0°C° 0 mm 4 m/s 759 mmHg 52%
    10:00 +1°C° 0 mm 4 m/s 760 mmHg 42%
    11:00 +1°C° 0 mm 4 m/s 760 mmHg 39%
    12:00 +3°C° 0 mm 4 m/s 760 mmHg 36%
    13:00 +4°C° 0 mm 3 m/s 760 mmHg 34%
    14:00 +4°C° 0 mm 3 m/s 760 mmHg 34%
    15:00 +5°C° 0 mm 3 m/s 760 mmHg 34%
    16:00 +5°C° 0 mm 3 m/s 760 mmHg 34%
    17:00 +5°C° 0 mm 2 m/s 760 mmHg 37%
    18:00 +3°C° 0 mm 2 m/s 761 mmHg 41%
    19:00 +2°C° 0 mm 2 m/s 761 mmHg 44%
    20:00 +2°C° 0 mm 2 m/s 762 mmHg 46%
    21:00 +1°C° 0 mm 2 m/s 762 mmHg 48%
    22:00 -1°C° 0 mm 2 m/s 762 mmHg 50%
    23:00 -1°C° 0 mm 2 m/s 762 mmHg 50%
    Arată mai mult